This demonstration page uses our WeatherBlox Daily Observations layout. Learn more.

Left ArrowRight Arrow

39.95238, -75.16362

Hourly Observations for April 29, 2015

Temp ( °F °C ) Dew Point ( °F °C ) Humidity (%) Winds ( mph kmh ) Pressure ( in mb ) Visibility ( mi km ) Precip ( " mm )
12:54 am 00:54 Clear 60 15.6 38 3.3 44 44 NNW 9 15 29.81 1010 10 16 0.00 0.00
1:54 am 01:54 Clear 60 15.6 38 3.3 44 44 WNW 7 11 29.80 1009 10 16 0.00 0.00
2:54 am 02:54 Clear 56 13.3 39 3.9 53 53 NNW 7 11 29.78 1009 10 16 0.00 0.00
3:54 am 03:54 Clear 57 13.9 38 3.3 49 49 WNW 5 7 29.78 1009 10 16 0.00 0.00
4:54 am 04:54 Clear 51 10.6 38 3.3 61 61 WSW 6 9 29.78 1008 10 16 0.00 0.00
5:54 am 05:54 Clear 51 10.6 39 3.9 64 64 WSW 5 7 29.78 1008 10 16 0.00 0.00
6:54 am 06:54 Mostly Sunny 55 12.8 39 3.9 55 55 Calm 29.78 1008 10 16 0.00 0.00
7:54 am 07:54 Mostly Sunny 59 15 39 3.9 48 48 NNW 8 13 29.78 1009 10 16 0.00 0.00
8:54 am 08:54 Mostly Sunny 63 17.2 41 5 45 45 NW 10 17 29.78 1008 10 16 0.00 0.00
9:54 am 09:54 Mostly Sunny 66 18.9 41 5 40 40 NW 9 15 29.77 1008 10 16 0.00 0.00
10:54 am 10:54 Mostly Sunny 69 20.6 41 5 36 36 NW 8 13 29.75 1008 10 16 0.00 0.00
11:54 am 11:54 Partly Cloudy 71 21.7 40 4.4 32 32 NW 12 19 29.73 1007 10 16 0.00 0.00
12:54 pm 12:54 Partly Cloudy 72 22.2 37 2.8 28 28 W 14 22 29.71 1006 10 16 0.00 0.00
1:54 pm 13:54 Partly Cloudy 73 22.8 40 4.4 30 30 NNW 9 15 29.70 1006 10 16 0.00 0.00
2:54 pm 14:54 Partly Cloudy 75 23.9 37 2.8 25 25 NNW 13 20 29.67 1005 10 16 0.00 0.00
3:54 pm 15:54 Partly Cloudy 76 24.4 37 2.8 24 24 NW 12 19 29.66 1005 10 16 0.00 0.00
4:54 pm 16:54 Partly Cloudy 77 25 39 3.9 26 26 NNW 12 19 29.65 1004 10 16 0.00 0.00
5:54 pm 17:54 Partly Cloudy 76 24.4 35 1.7 23 23 W 7 11 29.65 1004 10 16 0.00 0.00
6:54 pm 18:54 Partly Cloudy 74 23.3 37 2.8 26 26 VRB 7 11 29.65 1004 10 16 0.00 0.00
7:54 pm 19:54 Partly Cloudy 70 21.1 40 4.4 34 34 WSW 9 15 29.65 1004 10 16 0.00 0.00
8:54 pm 20:54 Partly Cloudy 69 20.6 40 4.4 35 35 SW 9 15 29.67 1005 10 16 0.00 0.00
9:54 pm 21:54 Mostly Cloudy 66 18.9 42 5.6 42 42 S 10 17 29.68 1005 10 16 0.00 0.00
10:54 pm 22:54 Mostly Cloudy 63 17.2 44 6.7 50 50 SSW 5 7 29.67 1005 10 16 0.00 0.00
11:54 pm 23:54 Mostly Cloudy 62 16.7 44 6.7 52 52 WSW 6 9 29.69 1005 10 16 0.00 0.00

Powered by AerisWeather